[[{"header":{"parameterUnit":"m.s-1","parameterCategory":1,"la1":30.2991,"la2":30.254,"lo1":-89.0895,"lo2":-89.0444,"dy":0.0017,"dx":0.0017,"nx":28,"ny":28,"refTime":"2024-03-11T09:00:00:Z","depth":0,"parameterNumber":2,"parameterNumberName":"U-component_of_WINDS"},"data":[0,0,0,0,0,0,0,0,0,0,0,0,0,0,0,0,0,0,0,0,0,0,0,0,0,0,0,0,0,0,0,0,0,0,0,0,0,0,0,0,0,0,0,0,0,0,0,0,0,0,0,0,0,0,0,0,0,0,-0.6081,-0.6081,0,-0.6081,-0.6081,-0.6081,-0.606,-0.6059,-0.6058,-0.6058,-0.6059,-0.6059,-0.606,0,0,0,0,0,0,0,0,0,0,0,0,0,-0.6063,-0.6064,-0.6081,-0.6081,-0.6081,-0.6081,-0.6081,-0.6081,-0.606,-0.6059,-0.6058,-0.6058,-0.6058,-0.6059,-0.606,0,0,0,0,0,0,0,0,0,0,0,0,0,-0.6068,-0.6064,-0.6081,-0.607,-0.6069,-0.6081,-0.6081,-0.6081,-0.606,-0.6059,-0.6058,-0.6057,-0.6058,-0.6059,-0.606,-0.6081,0,0,-0.6062,-0.6063,0,0,0,0,0,0,0,0,-0.6067,-0.6068,-0.6072,-0.6071,-0.607,-0.6069,-0.6075,-0.6081,-0.606,-0.6063,-0.6058,-0.6057,-0.6063,-0.6063,-0.6065,-0.6081,-0.6081,-0.6062,-0.6063,-0.6063,-0.6063,0,0,0,0,0,0,0,-0.6067,-0.6068,-0.6081,-0.6072,-0.6071,-0.6066,-0.6065,-0.6076,-0.6068,-0.6063,-0.6062,-0.6062,-0.6062,-0.6064,-0.6065,-0.6081,-0.6062,-0.6063,-0.6063,-0.6064,-0.6115,-0.6116,0,0,0,0,0,0,-0.6068,-0.6068,-0.6081,-0.6081,-0.6067,-0.6067,-0.6066,-0.607,-0.6068,-0.6066,-0.6062,-0.6061,-0.6063,-0.6064,-0.6065,-0.609,-0.6063,-0.6064,-0.6064,-0.6115,-0.6116,-0.6117,0,0,0,0,0,0,-0.6068,-0.607,-0.6081,-0.6074,-0.6075,-0.6068,-0.6072,-0.6071,-0.6073,-0.6067,-0.6066,-0.6066,-0.6063,-0.6064,-0.6077,-0.609,-0.6064,-0.6065,-0.6114,-0.6115,-0.6116,-0.614,0,0,0,0,0,0,-0.6068,-0.607,-0.6078,-0.6074,-0.6075,-0.6093,-0.6073,-0.6071,-0.6074,-0.6072,-0.607,-0.6069,-0.6062,-0.6076,-0.6078,-0.609,-0.6066,-0.6112,-0.6114,-0.6116,-0.6138,-0.6142,-0.6145,0,0,0,0,0,-0.6067,-0.6085,-0.6078,-0.608,-0.6085,-0.6094,-0.6094,-0.6086,-0.6075,-0.6083,-0.608,-0.6069,-0.6088,-0.6078,-0.608,-0.6092,-0.6112,-0.6114,-0.6116,-0.6137,-0.6141,-0.6145,0,0,0,0,0,0,-0.609,-0.6084,-0.6077,-0.6094,-0.6094,-0.609,-0.61,-0.6091,-0.6095,-0.6093,-0.6082,-0.6082,-0.6097,-0.6096,-0.6085,-0.6113,-0.6098,-0.61,-0.6113,-0.6118,-0.6121,-0.6121,-0.6066,0,0,0,0,0,-0.6097,-0.6104,-0.6098,-0.6114,-0.6115,-0.6107,-0.6111,-0.6104,-0.6105,-0.6105,-0.6102,-0.6103,-0.6109,-0.6113,-0.6119,-0.6138,-0.6137,-0.6148,-0.6151,-0.6154,-0.6156,-0.6166,-0.6171,-0.6123,-0.6123,-0.6123,0,0,-0.6111,-0.6109,-0.6114,-0.6118,-0.6118,-0.6126,-0.6108,-0.6117,-0.6123,-0.6106,-0.6119,-0.6117,-0.6117,-0.6134,-0.6141,-0.6133,-0.6169,-0.6157,-0.6159,-0.616,-0.6169,-0.6173,-0.6177,-0.6125,-0.6124,-0.6124,0,0,-0.6141,-0.614,-0.6153,-0.6153,-0.6153,-0.6148,-0.6151,-0.6148,-0.6146,-0.6159,-0.6147,-0.6153,-0.6164,-0.6165,-0.6167,-0.6197,-0.6188,-0.6199,-0.6218,-0.6228,-0.6232,-0.6235,-0.6246,-0.625,-0.6202,-0.6202,-0.6202,0,-0.6159,-0.617,-0.6161,-0.6171,-0.6173,-0.6158,-0.6171,-0.6172,-0.6173,-0.6175,-0.6167,-0.618,-0.6179,-0.6195,-0.6203,-0.6205,-0.6208,-0.6199,-0.6232,-0.6235,-0.6238,-0.6248,-0.6252,-0.6203,-0.6203,-0.6203,-0.6203,0,-0.6193,-0.6201,-0.6211,-0.6212,-0.6216,-0.6227,-0.622,-0.6224,-0.6217,-0.6213,-0.6226,-0.6225,-0.623,-0.6233,-0.6226,-0.6249,-0.6244,-0.6234,-0.6218,-0.6244,-0.6253,-0.6257,-0.6205,-0.6205,-0.6204,-0.6204,0,0,-0.6237,-0.6233,-0.6237,-0.6238,-0.6236,-0.6242,-0.6253,-0.6257,-0.6261,-0.6263,-0.6272,-0.6281,-0.6272,-0.6274,-0.6267,-0.6276,-0.63,-0.6265,-0.6265,-0.6271,-0.6324,-0.6332,-0.6336,-0.6294,-0.6295,-0.6295,-0.6324,0,-0.6266,-0.6284,-0.6276,-0.6294,-0.6302,-0.6288,-0.6297,-0.6297,-0.6294,-0.63,-0.6296,-0.6303,-0.629,-0.6291,-0.6299,-0.6296,-0.6311,-0.6293,-0.6302,-0.6302,-0.6302,-0.6341,-0.6349,-0.6376,-0.6328,-0.6328,-0.6329,0,-0.6303,-0.6305,-0.6325,-0.6322,-0.6325,-0.6333,-0.6336,-0.6342,-0.6342,-0.6339,-0.6341,-0.6333,-0.6343,-0.6328,-0.6342,-0.6331,-0.6334,-0.6333,-0.6334,-0.6334,-0.6317,-0.6342,-0.6385,-0.6389,-0.6335,-0.6334,-0.6334,0,-0.6333,-0.6342,-0.6354,-0.6355,-0.6352,-0.6359,-0.6358,-0.6357,-0.636,-0.6363,-0.6365,-0.6369,-0.6372,-0.6375,-0.6368,-0.6358,-0.6383,-0.6367,-0.6381,-0.6381,-0.6387,-0.6386,-0.643,-0.6389,-0.6389,-0.6389,-0.6389,0,-0.6366,-0.6379,-0.6368,-0.6376,-0.6389,-0.638,-0.6393,-0.6391,-0.639,-0.6398,-0.6386,-0.6393,-0.6383,-0.6389,-0.6384,-0.6396,-0.6398,-0.6396,-0.6394,-0.6396,-0.6397,-0.6398,-0.6396,-0.639,-0.639,-0.639,-0.6389,0,-0.6402,-0.6396,-0.6408,-0.6405,-0.6404,-0.6414,-0.6411,-0.6418,-0.6414,-0.6423,-0.6425,-0.6418,-0.6425,-0.6418,-0.6424,-0.642,-0.6437,-0.6433,-0.6437,-0.6436,-0.645,-0.6448,-0.6496,-0.6501,-0.6457,-0.6457,-0.6458,0,-0.6424,-0.6433,-0.643,-0.6434,-0.6434,-0.644,-0.6443,-0.6434,-0.6438,-0.6438,-0.6446,-0.6451,-0.6455,-0.6466,-0.6462,-0.6467,-0.6463,-0.6479,-0.6463,-0.6466,-0.6463,-0.6462,-0.6463,-0.6482,-0.6483,-0.6483,-0.6483,0,-0.6463,-0.6459,-0.6464,-0.6467,-0.6471,-0.6474,-0.6475,-0.6479,-0.647,-0.6474,-0.6481,-0.6484,-0.649,-0.6496,-0.6499,-0.6499,-0.649,-0.6488,-0.6492,-0.6494,-0.6496,-0.6495,-0.6446,-0.6487,-0.6487,-0.6487,-0.6486,-0.6486,-0.6493,-0.65,-0.6499,-0.6505,-0.6505,-0.6506,-0.6513,-0.6509,-0.6514,-0.6519,-0.6513,-0.6521,-0.6521,-0.6524,-0.6525,-0.6531,-0.6524,-0.6529,-0.653,-0.6531,-0.6533,-0.6495,-0.6532,-0.6531,-0.6531,-0.6531,-0.6531,0,-0.6531,-0.653,-0.6535,-0.6537,-0.6542,-0.6532,-0.6534,-0.6538,-0.6545,-0.6545,-0.6549,-0.6557,-0.6562,-0.6559,-0.6563,-0.6569,-0.6565,-0.657,-0.657,-0.657,-0.6539,-0.6536,-0.6574,-0.6574,-0.6574,-0.6574,-0.6574,-0.6574,-0.6552,-0.6564,-0.656,-0.6572,-0.657,-0.6578,-0.6579,-0.6581,-0.6581,-0.659,-0.6594,-0.6591,-0.659,-0.6594,-0.6599,-0.6598,-0.66,-0.6607,-0.6605,-0.6576,-0.6572,-0.6568,-0.6565,-0.6608,-0.6608,-0.6634,-0.6635,-0.6635]},{"header":{"parameterUnit":"m.s-1","parameterCategory":1,"la1":30.2991,"la2":30.254,"lo1":-89.0895,"lo2":-89.0444,"dy":0.0017,"dx":0.0017,"nx":28,"ny":28,"refTime":"2024-03-11T09:00:00:Z","depth":0,"parameterNumber":3,"parameterNumberName":"V-component_of_WINDS"},"data":[0,0,0,0,0,0,0,0,0,0,0,0,0,0,0,0,0,0,0,0,0,0,0,0,0,0,0,0,0,0,0,0,0,0,0,0,0,0,0,0,0,0,0,0,0,0,0,0,0,0,0,0,0,0,0,0,0,0,0.056,0.0558,0,0.0394,0.0392,0.039,0.0252,0.025,0.0249,0.0247,0.0075,0.0072,0.0069,0,0,0,0,0,0,0,0,0,0,0,0,0,0.0754,0.0751,0.056,0.0558,0.0556,0.0394,0.0392,0.039,0.0252,0.025,0.0248,0.0247,0.0076,0.0072,0.0068,0,0,0,0,0,0,0,0,0,0,0,0,0,0.0637,0.075,0.056,0.0468,0.0458,0.0395,0.0392,0.0389,0.0252,0.025,0.0248,0.0246,0.0077,0.0072,0.0068,0.0082,0,0,0.0053,0.0051,0,0,0,0,0,0,0,0,0.0644,0.063,0.0483,0.0474,0.0463,0.0341,0.0397,0.0286,0.0253,0.033,0.0247,0.0245,0.0165,0.0153,0.0127,0.0074,0.0067,0.0053,0.005,0.0048,0.0046,0,0,0,0,0,0,0,0.0652,0.0637,0.0494,0.0481,0.0469,0.0433,0.0414,0.0376,0.0262,0.0323,0.0313,0.0295,0.0159,0.0132,0.0122,0.0064,0.0053,0.0048,0.0045,0.0044,0.0016,0.0018,0,0,0,0,0,0,0.0675,0.0644,0.0499,0.0489,0.055,0.0432,0.041,0.0383,0.0262,0.0242,0.0297,0.029,0.0141,0.0127,0.0115,0.0124,0.0048,0.0043,0.004,0.0013,0.0016,0.0018,0,0,0,0,0,0,0.068,0.0664,0.0506,0.0564,0.0541,0.0431,0.0401,0.038,0.0353,0.0243,0.0221,0.0291,0.0139,0.0122,0.0092,0.0116,0.0041,0.0037,0.0011,0.0014,0.0017,0.0143,0,0,0,0,0,0,0.0686,0.0666,0.0671,0.0565,0.0539,0.0487,0.0402,0.0379,0.0345,0.0333,0.023,0.0211,0.0136,0.01,0.0087,0.0108,0.0033,0.0008,0.0012,0.0016,0.0136,0.015,0.0162,0,0,0,0,0,0.0693,0.0713,0.0672,0.0655,0.0543,0.0489,0.0473,0.0387,0.0348,0.0352,0.0281,0.0214,0.0116,0.0098,0.0082,0.0102,0.0006,0.0011,0.0016,0.013,0.0147,0.0162,0,0,0,0,0,0,0.0823,0.0697,0.0651,0.0636,0.0575,0.0465,0.0467,0.0408,0.0355,0.0345,0.0239,0.0217,0.0199,0.0147,0.013,0.011,0.0052,0.0054,0.0145,0.016,0.0173,0.0185,0.0029,0,0,0,0,0,0.085,0.0818,0.0709,0.0706,0.0678,0.0579,0.0552,0.0491,0.0422,0.0394,0.0321,0.0256,0.021,0.0182,0.0134,0.0128,0.0103,0.0134,0.0148,0.0159,0.0161,0.0154,0.0167,0.0034,0.0034,0.0034,0,0,0.0906,0.0833,0.0818,0.0731,0.0676,0.0643,0.0557,0.0527,0.0501,0.0389,0.0357,0.0301,0.0221,0.0204,0.0192,0.016,0.0193,0.0165,0.0175,0.0171,0.0161,0.0173,0.0185,0.0038,0.0037,0.0036,0,0,0.099,0.0932,0.0923,0.087,0.0788,0.0722,0.0721,0.0621,0.058,0.0546,0.0461,0.0429,0.0352,0.0299,0.0262,0.0327,0.0264,0.0314,0.0382,0.0376,0.0387,0.0395,0.0418,0.0428,0.0318,0.0318,0.0318,0,0.1068,0.1017,0.0926,0.0901,0.0865,0.0763,0.0754,0.0706,0.0613,0.0589,0.0555,0.0457,0.0396,0.0365,0.0381,0.0355,0.0349,0.0325,0.0393,0.0401,0.0407,0.0428,0.0437,0.0324,0.0324,0.0323,0.0322,0,0.1118,0.1084,0.1087,0.1001,0.0965,0.0948,0.0853,0.0828,0.077,0.0708,0.0674,0.0598,0.0532,0.052,0.0463,0.0481,0.0463,0.0413,0.0352,0.0428,0.0446,0.0453,0.0334,0.0332,0.033,0.0328,0,0,0.1278,0.1142,0.1145,0.1104,0.1007,0.0978,0.0957,0.0894,0.0874,0.0813,0.0791,0.073,0.0682,0.064,0.0576,0.0572,0.0628,0.0521,0.0517,0.0543,0.0642,0.0681,0.0692,0.0586,0.0587,0.0588,0.0649,0,0.1346,0.1302,0.122,0.1202,0.1169,0.1072,0.1053,0.0991,0.0932,0.0895,0.0829,0.0787,0.0728,0.0702,0.0693,0.0623,0.0647,0.0618,0.0564,0.0563,0.0587,0.0701,0.0741,0.0802,0.0655,0.0656,0.0657,0,0.1419,0.1365,0.1345,0.125,0.1233,0.1217,0.1153,0.1119,0.1047,0.1004,0.0959,0.0889,0.086,0.0806,0.0764,0.0746,0.072,0.0682,0.0682,0.0673,0.0615,0.0695,0.082,0.0829,0.0667,0.0666,0.0666,0,0.1537,0.146,0.1437,0.1405,0.1295,0.1286,0.1239,0.1164,0.1132,0.1076,0.1054,0.0995,0.0963,0.0918,0.0834,0.0803,0.0802,0.074,0.0765,0.0767,0.0768,0.0769,0.0891,0.0753,0.0753,0.0753,0.0753,0,0.1621,0.1612,0.1489,0.1475,0.1462,0.1367,0.1357,0.1301,0.1236,0.1208,0.1121,0.1098,0.0988,0.0952,0.0886,0.0862,0.0848,0.0812,0.0794,0.0819,0.0824,0.08,0.0793,0.0755,0.0754,0.0754,0.0754,0,0.1751,0.1668,0.1637,0.1535,0.1509,0.1504,0.1416,0.1399,0.1336,0.1303,0.1289,0.119,0.1142,0.1054,0.0982,0.0937,0.0927,0.0897,0.0952,0.0941,0.097,0.0969,0.108,0.1089,0.0947,0.0949,0.095,0,0.1809,0.18,0.1698,0.1674,0.1631,0.1594,0.1561,0.1468,0.1437,0.1354,0.1347,0.1293,0.1245,0.1173,0.1094,0.1038,0.1005,0.1048,0.0996,0.1022,0.1005,0.1007,0.1005,0.106,0.1062,0.1064,0.1065,0,0.1922,0.1882,0.1838,0.1781,0.1744,0.1694,0.1639,0.1625,0.1519,0.1488,0.1439,0.1402,0.1329,0.1276,0.1209,0.1159,0.1095,0.1082,0.1085,0.111,0.1142,0.1125,0.0983,0.108,0.1078,0.1077,0.1076,0.1076,0.2017,0.2005,0.1931,0.1886,0.1835,0.1786,0.1765,0.17,0.1658,0.1592,0.1539,0.1495,0.1422,0.1325,0.128,0.1243,0.1213,0.1217,0.1217,0.122,0.123,0.1149,0.1231,0.123,0.123,0.1229,0.1229,0,0.2125,0.2073,0.2032,0.1959,0.1924,0.1867,0.1804,0.1777,0.174,0.1678,0.1633,0.1577,0.1526,0.1443,0.1385,0.1372,0.1341,0.136,0.1359,0.1349,0.1261,0.1264,0.1386,0.1386,0.1386,0.1386,0.1386,0.1386,0.2176,0.2153,0.2104,0.2054,0.2002,0.1959,0.1927,0.1882,0.1832,0.1774,0.1732,0.1679,0.1609,0.1545,0.1495,0.1472,0.1455,0.1483,0.1451,0.137,0.1355,0.1341,0.1344,0.148,0.148,0.1542,0.1542,0.1543]}]]